Regional Weather Roundup
Issued by NWS

Home | Current Version | Previous Version | Graphics & Text | Print | Product List | Glossary On
Versions: 1 2 3 4 5 6 7 8 9 10 11 12 13 14 15 16 17 18 19 20 21 22 23 24 25 26 27 28 29 30 31 32 33 34 35 36 37 38 39 40 41 42 43 44 45 46 47 48 49 50
000
ASUS43 KLOT 290703
RWRIL

ILLINOIS REGIONAL WEATHER ROUNDUP
NATIONAL WEATHER SERVICE CHICAGO/ROMEOVILLE IL
200 AM CDT MON AUG 29 2016

NOTE: "FAIR" INDICATES FEW OR NO CLOUDS BELOW 12,000 FEET WITH NO
SIGNIFICANT WEATHER AND/OR OBSTRUCTIONS TO VISIBILITY.

* THESE STATIONS ARE NOT UNDER NWS QUALITY CONTROL. THEY ALSO MAY NOT
  REPORT WEATHER SUCH AS PRECIPITATION OR FOG.

ILZ001-002-007-009-015-016-024-290800-
NORTHWEST ILLINOIS

CITY           SKY/WX    TMP DP  RH WIND       PRES   REMARKS
MOLINE         CLOUDY    72  68  87 CALM      30.18F
STERLING*      MOCLDY    69  68  96 E5        30.20F
SAVANNA*       CLOUDY    69  68  96 CALM      30.20S
$$

ILZ003-004-008-010-011-017-018-290800-
NORTH CENTRAL ILLINOIS

CITY           SKY/WX    TMP DP  RH WIND       PRES   REMARKS
ROCKFORD       CLOUDY    71  68  90 CALM      30.22F
FREEPORT*      CLOUDY    67  66  97 S3        30.23S
ROCHELLE*      MOCLDY    68  67  98 CALM      30.21F FOG
$$

ILZ005-006-012>014-019>023-290800-
NORTHEAST ILLINOIS

CITY           SKY/WX    TMP DP  RH WIND       PRES   REMARKS
CHICAGO-OHARE  PTCLDY    72  68  87 E3        30.21F
CHICAGO-MIDWAY PTCLDY    74  68  81 E5        30.20F
AURORA         PTCLDY    69  67  93 CALM      30.21F FOG
LANSING*       PTCLDY    70  70 100 CALM      30.21S
JOLIET*        MOCLDY    71  70  98 CALM      30.20F FOG
WAUKEGAN       PTCLDY    67  66  97 CALM      30.21F
DUPAGE AIRPORT CLEAR     69  66  90 NE3       30.20F
KANKAKEE*      CLEAR     69  68  97 CALM      30.20S
WHEELING       CLEAR     70  67  90 CALM      30.22F
MORRIS*        PTCLDY    69  68  97 E3        30.19F FOG
ROMEOVILLE*    MOCLDY    70  70 100 E5        30.21S
$$

LMZ740>746-290800-
SOUTHERN LAKE MICHIGAN

STATION/POSITION SKY/WX   TEMP    WIND        PRES    VSBY  WAVE
                          AIR SEA DIR/SP/G                  HT/PER
                          (F)     (DEG/KT/KT) (MB)    (MI)  (FT/S)
SOUTHERN BUOY              73 75   60/  6/  6 1023.0          1
WILMETTE HARBOR            74 73  130/  4/  6   N/A           1/ 3
HARRISON CRIB              75      90/  6/  6   N/A
BURNHAM HARBOR             72      80/  3/  4   N/A
CALUMET HARBOR             73     100/  5/  7 1022.6F
BURNS HARBOR               71      80/  3/  6 1024.0R
MICHIGAN CITY              71      50/  4/  4   N/A
MICHIGAN CITY 6N           74 76  100/  4/  6   N/A           2/ 4
ST. JOSEPH                 72 74   70/  4/  6 1023.1F         1/ 3
$$

ILZ025>027-034>036-040-047-049-050-058-095>099-290800-
WEST-CENTRAL ILLINOIS

CITY           SKY/WX    TMP DP  RH WIND       PRES   REMARKS
QUINCY         CLEAR     72  72 100 SE6       30.15F
GALESBURG*     CLOUDY    69  67  92 E3        30.17F
MACOMB*        PTCLDY    68  68 100 CALM      30.19F
JACKSONVILLE*  CLEAR     70  69  96 E3        30.15F
PITTSFIELD*    PTCLDY    73  72  98 CALM      30.16F
$$

ILZ028>032-037-038-041>044-048-051>054-059>061-290800-
CENTRAL ILLINOIS

CITY           SKY/WX    TMP DP  RH WIND       PRES   REMARKS
PONTIAC        CLEAR     70  70 100 E5        30.19F FOG
BLOOMINGTON    CLEAR     70  67  90 E6        30.18F
DECATUR        CLEAR     72  70  93 CALM      30.17F FOG
PEORIA         PTCLDY    72  71  97 CALM      30.17F
LACON*         PTCLDY    67  66  97 CALM      30.17F FOG
LINCOLN*       CLEAR     72  71  99 CALM      30.16F
SPRINGFIELD    CLEAR     74  71  91 NE5       30.16F
TAYLORVILLE    CLEAR     73  72  97 CALM      30.15F
$$

ILZ033-039-045-046-055>057-062-063-290800-
EAST-CENTRAL ILLINOIS

CITY           SKY/WX    TMP DP  RH WIND       PRES   REMARKS
CHAMPAIGN      CLEAR     72  69  90 SE5       30.18F
RANTOUL*       CLEAR     73  70  92 NE3       30.18F
MATTOON        CLEAR     73  69  87 S5        30.14F
PARIS*         CLEAR     70  70  99 CALM      30.17S
$$

ILZ079-100>102-290800-
SOUTHWEST ILLINOIS

CITY           SKY/WX    TMP DP  RH WIND       PRES   REMARKS
ALTON          CLEAR     73  72  96 CALM      30.14F
BELLEVILLE     CLEAR     74  74  99 NE1       30.13F
CAHOKIA*       CLEAR     76  72  87 S3        30.13F
SPARTA*        CLEAR     73  72  97 CALM      30.14S
$$

ILZ064>066-069>071-074>076-080>082-084>086-088>090-092>094-290800-
SOUTH-CENTRAL ILLINOIS

CITY           SKY/WX    TMP DP  RH WIND       PRES   REMARKS
CARBONDALE     CLEAR     74  72  93 NE3       30.13S FOG
EFFINGHAM*     CLEAR     71  71 100 CALM      30.16F
MARION         CLEAR     75  73  94 CALM      30.13F FOG
MT. VERNON     CLEAR     73  66  78 CALM      30.14F
CENTRALIA*     CLEAR     72  71  96 CALM      30.13F
SALEM*         CLEAR     75  70  83 CALM      30.13F
METROPOLIS*    CLEAR     74  73  97 CALM      30.12S
$$

ILZ067-068-072-073-078-083-087-091-290800-
SOUTHEAST ILLINOIS

CITY           SKY/WX    TMP DP  RH WIND       PRES   REMARKS
LAWRENCEVILLE  PTCLDY    71  70  96 CALM      30.14F
FLORA*         CLEAR     73  70  91 CALM      30.13F
FAIRFIELD*     CLEAR     72  71  95 CALM      30.12F
HARRISBURG*    CLEAR     76  75  97 CALM      30.12F
ROBINSON*      PTCLDY    68  68  99 N3          N/A
CARMI*         CLEAR     72  72  99 CALM      30.11F
$$

ABBREVIATIONS USED IN REMARKS
   TC - TEMPERATURE IN CELSIUS
  WCI - WIND CHILL INDEX
   HX - HEAT INDEX
  VSB - VISIBILITY
$$





USA.gov is the U.S. government's official web portal to all federal, state and local government web resources and services.